Weather in Paracuru

Brazil     3°25′14″S   39°02′05″W
temp.,
°C
wind,
m/s
gust,
m/s
humid.,
%
clouds,
%
prec.,
mm/h
press.,
hPa
HPBL,
m
26 january, tue
tue2600:00+26e3885100 0.0 1010586
03:00+25e3885100 0.1 1009544
06:00+25ese2787100 0.3 1010468
09:00+28ese476997 0.8 10111020
12:00+31e5758100 1.5 10101292
15:00+30e6758100 1.8 1008967
18:00+26ene4976100 0.0 1009502
21:00+26e3882100 0.0 1010612
27 january, wed
wed2700:00+26e388469 0.0 1010685
03:00+25ese388569 0.1 1009562
06:00+24se268755 0.0 1010319
09:00+29se466274 0.3 10121211
12:00+32e674824 0.1 10101567
15:00+31e675316 0.1 1007962
18:00+26ene49760 0.0 1008549
21:00+26e49780 0.0 1010588
28 january, thu
thu2800:00+26e48845 0.1 1010712
03:00+25e388526 0.3 1008523
06:00+24ese389165 1.5 1009435
09:00+29ese476583 2.6 10111121
12:00+30e5766100 2.7 1010986
15:00+27e5878100 9.4 1008629
18:00+26e4978100 0.6 1008425
21:00+26ene498098 0.6 1011569
29 january, fri
fri2900:00+26ene498196 0.0 1010577
03:00+25e388088 0.3 1008466
06:00+25ese2683100 0.6 1010282
09:00+27ese4781100 4.4 1012889
12:00+28e5874100 4.1 10111045
15:00+30e695988 4.4 10091350
18:00+26e487634 0.0 1009779
21:00+26e498166 0.0 1011790
30 january, sat
sat3000:00+25e498599 0.3 1011577
03:00+25e498596 0.4 1009513
06:00+25ese398654 0.2 1011509
09:00+30e6106170 0.3 10121439
12:00+31e6956100 0.3 10121560
15:00+30e696095 0.3 10091310
18:00+27e487474 0.0 1009914
21:00+26e498274 0.0 1011754